This is the latest recevied weather packets stored in our database for station/object G0TGD-10. If no packets are shown the sender has not sent any weather packets the latest 10 day(s).
| Time | Temp. | Humidity | Pressure | Rain* | Wind** | Luminosity | Snow |
|---|---|---|---|---|---|---|---|
| 1777255500 | 10.56° C | 54% | 1023.8 hPa | - | - | - | - |
| 1777254600 | 10.56° C | 53% | 1023.8 hPa | - | - | - | - |
| 1777253699 | 11.11° C | 53% | 1023.9 hPa | - | - | - | - |
| 1777252799 | 10.56° C | 53% | 1023.9 hPa | - | - | - | - |
| 1777251899 | 11.11° C | 52% | 1024 hPa | - | - | - | - |
| 1777250999 | 11.11° C | 52% | 1024 hPa | - | - | - | - |
| 1777250099 | 11.11° C | 52% | 1024.1 hPa | - | - | - | - |
| 1777249199 | 11.11° C | 52% | 1024 hPa | - | - | - | - |
| 1777248299 | 11.67° C | 52% | 1024 hPa | - | - | - | - |
| 1777247399 | 11.67° C | 52% | 1024.1 hPa | - | - | - | - |
| 1777246498 | 11.67° C | 52% | 1024.1 hPa | - | - | - | - |
| 1777245598 | 11.67° C | 51% | 1024.2 hPa | - | - | - | - |
| 1777244698 | 12.22° C | 50% | 1024.1 hPa | - | - | - | - |
| 1777243798 | 12.22° C | 50% | 1023.9 hPa | - | - | - | - |
| 1777242898 | 12.78° C | 49% | 1023.8 hPa | - | - | - | - |
| 1777241998 | 12.78° C | 49% | 1023.7 hPa | - | - | - | - |
| 1777241098 | 12.78° C | 48% | 1023.7 hPa | - | - | - | - |
| 1777240197 | 13.33° C | 48% | 1023.6 hPa | - | - | - | - |
| 1777239297 | 13.33° C | 48% | 1023.6 hPa | - | - | - | - |
| 1777238397 | 13.33° C | 47% | 1023.6 hPa | - | - | - | - |
| 1777237497 | 13.33° C | 47% | 1023.6 hPa | - | - | - | - |
| 1777236597 | 13.89° C | 46% | 1023.5 hPa | - | - | - | - |
| 1777235696 | 14.44° C | 46% | 1023.5 hPa | - | - | - | - |
| 1777234796 | 14.44° C | 46% | 1023.4 hPa | - | - | - | - |
| 1777233896 | 15° C | 45% | 1023.4 hPa | - | - | - | - |
* Rain since midnight (hover to see other rain measurements)
** Current wind speed in m/s (hover to see current wind gust speed)